[[{"header":{"parameterUnit":"m.s-1","parameterCategory":2,"la1":30.2991,"la2":30.254,"lo1":-89.0895,"lo2":-89.0444,"dy":0.0017,"dx":0.0017,"nx":28,"ny":28,"refTime":"2024-10-10T09:00:00:Z","depth":"0","parameterNumber":2,"parameterNumberName":"U-component_of_CURRENTS"},"data":[0,0,0,0,0,0,0,0,0,0,0,0,0,0,0,0,0,0,0,0,0,0,0,0,0,0,0,0,0,0,0,0,0,0,0,0,0,0,0,0,0,0,0,0,0,0,0,0,0,0,0,0,0,0,0,0,0,0,0.3326,0.3326,0,0.3238,0.3236,0.3235,0.3157,0.3156,0.3156,0.3155,0.304,0.3037,0.3035,0,0,0,0,0,0,0,0,0,0,0,0,0,0.344,0.3438,0.3326,0.3325,0.3325,0.3238,0.3236,0.3235,0.3157,0.3156,0.3156,0.3155,0.3041,0.3037,0.3034,0,0,0,0,0,0,0,0,0,0,0,0,0,0.3371,0.3437,0.3326,0.3279,0.3274,0.3238,0.3236,0.3234,0.3157,0.3156,0.3156,0.3155,0.3042,0.3038,0.3034,0.3024,0,0,0.3022,0.302,0,0,0,0,0,0,0,0,0.3375,0.3366,0.3287,0.3282,0.3277,0.3212,0.3234,0.3164,0.3157,0.3197,0.3155,0.3155,0.3098,0.309,0.3068,0.3019,0.3014,0.3022,0.3019,0.3017,0.3016,0,0,0,0,0,0,0,0.338,0.337,0.3287,0.3286,0.328,0.3267,0.3255,0.3221,0.3149,0.3193,0.3188,0.3186,0.3094,0.3072,0.3065,0.3012,0.3022,0.3018,0.3016,0.3014,0.3014,0.3016,0,0,0,0,0,0,0.34,0.3374,0.3289,0.3284,0.333,0.3266,0.3253,0.323,0.3149,0.3138,0.3187,0.3183,0.308,0.307,0.3061,0.3087,0.3017,0.3014,0.3012,0.3012,0.3015,0.3017,0,0,0,0,0,0,0.3402,0.3392,0.3293,0.3332,0.3319,0.3265,0.3239,0.3228,0.3217,0.3146,0.3133,0.3189,0.3079,0.3066,0.3048,0.308,0.3012,0.3008,0.3009,0.3013,0.3016,0.3112,0,0,0,0,0,0,0.3405,0.3393,0.339,0.3333,0.3318,0.3298,0.324,0.3227,0.3218,0.3212,0.3143,0.3131,0.3077,0.3055,0.3044,0.3073,0.3005,0.3006,0.3011,0.3015,0.3106,0.3118,0.3129,0,0,0,0,0,0.3409,0.341,0.339,0.3381,0.3313,0.33,0.3292,0.3247,0.322,0.3231,0.318,0.3134,0.3076,0.3053,0.304,0.3069,0.3004,0.3009,0.3014,0.3101,0.3116,0.3129,0,0,0,0,0,0,0.3464,0.3401,0.3378,0.336,0.3345,0.3289,0.3293,0.3264,0.3231,0.3223,0.3149,0.3135,0.3132,0.3097,0.3073,0.3088,0.3038,0.3041,0.3108,0.3122,0.3134,0.3147,0.3002,0,0,0,0,0,0.3475,0.3455,0.341,0.3403,0.3397,0.335,0.334,0.3314,0.3276,0.326,0.321,0.3169,0.3144,0.313,0.3098,0.31,0.3097,0.3119,0.313,0.314,0.3147,0.3181,0.3197,0.3034,0.3034,0.3034,0,0,0.3498,0.3461,0.3452,0.3414,0.3392,0.3388,0.3341,0.334,0.3337,0.3254,0.3238,0.3203,0.3155,0.3154,0.3152,0.3128,0.319,0.3147,0.3155,0.3157,0.3189,0.3204,0.3218,0.3038,0.3037,0.3037,0,0,0.3527,0.3501,0.3489,0.3484,0.3462,0.3436,0.3445,0.3402,0.3387,0.3375,0.332,0.3313,0.3261,0.324,0.322,0.3284,0.3249,0.328,0.3345,0.3379,0.3392,0.3404,0.3439,0.3453,0.3287,0.3287,0.3287,0,0.355,0.352,0.3495,0.3491,0.3487,0.3464,0.3464,0.3458,0.3416,0.3406,0.3389,0.334,0.3305,0.3306,0.3331,0.331,0.3322,0.3289,0.3394,0.3405,0.3415,0.3448,0.3462,0.3292,0.3292,0.3291,0.3291,0,0.3562,0.3551,0.3556,0.3529,0.3536,0.354,0.353,0.3535,0.3515,0.3492,0.3495,0.3459,0.343,0.3432,0.3396,0.3452,0.3436,0.3402,0.3355,0.3437,0.3467,0.348,0.33,0.3298,0.3297,0.3295,0,0,0.3547,0.3554,0.3551,0.3551,0.3551,0.3552,0.3577,0.3572,0.3586,0.3572,0.359,0.3567,0.3553,0.3535,0.3505,0.354,0.3633,0.3511,0.351,0.3542,0.3718,0.3622,0.3627,0.3616,0.3619,0.362,0.3717,0,0.3546,0.3548,0.3551,0.3568,0.3568,0.3578,0.3601,0.361,0.3618,0.3643,0.3635,0.364,0.3592,0.3596,0.3626,0.3622,0.3669,0.361,0.3638,0.3639,0.3539,0.3639,0.3458,0.3521,0.3729,0.3731,0.3733,0,0.3525,0.3532,0.3541,0.3571,0.3573,0.3588,0.3619,0.3642,0.3686,0.3699,0.3719,0.3714,0.3754,0.372,0.3766,0.373,0.3743,0.3747,0.3749,0.3631,0.3566,0.347,0.3536,0.3452,0.3752,0.3751,0.3749,0,0.3494,0.3514,0.3518,0.353,0.3568,0.3578,0.3601,0.3644,0.3664,0.3744,0.3767,0.381,0.3826,0.386,0.3854,0.3825,0.3919,0.3873,0.3804,0.3797,0.3633,0.3607,0.361,0.3938,0.3938,0.3938,0.3937,0,0.3467,0.3471,0.3505,0.3512,0.3526,0.3568,0.3593,0.3635,0.3701,0.3729,0.3788,0.3821,0.3863,0.3902,0.391,0.3893,0.396,0.3839,0.3822,0.3662,0.3639,0.3545,0.3501,0.3941,0.3941,0.394,0.3939,0,0.3425,0.3445,0.3453,0.3496,0.3507,0.3519,0.3568,0.3594,0.3667,0.3719,0.3747,0.3837,0.3892,0.3926,0.3992,0.3933,0.3834,0.3934,0.3744,0.3702,0.3516,0.3482,0.3358,0.3261,0.3873,0.3871,0.3869,0,0.3397,0.3399,0.3432,0.3427,0.344,0.3465,0.3481,0.3562,0.3599,0.3709,0.3735,0.3821,0.3861,0.3922,0.3876,0.3887,0.3788,0.3699,0.3602,0.3502,0.3455,0.3346,0.3266,0.3442,0.3437,0.3433,0.343,0,0.3356,0.3367,0.3384,0.337,0.3374,0.3388,0.3428,0.3448,0.3547,0.3584,0.3649,0.3701,0.3767,0.3689,0.37,0.3677,0.3499,0.3615,0.3562,0.3164,0.2996,0.2893,0.3397,0.3394,0.3398,0.3401,0.3402,0.3404,0.3316,0.3315,0.3324,0.3298,0.3297,0.3292,0.3261,0.3324,0.3349,0.3376,0.3513,0.3519,0.3514,0.35,0.346,0.3243,0.3269,0.3108,0.3096,0.3014,0.2839,0.3267,0.3204,0.3206,0.3208,0.321,0.3212,0,0.3245,0.3255,0.3245,0.3201,0.3139,0.3181,0.3197,0.3143,0.3116,0.3219,0.3244,0.3191,0.3122,0.3094,0.2898,0.2746,0.2635,0.266,0.2479,0.2443,0.2872,0.2771,0.2547,0.2547,0.2547,0.2548,0.2548,0.2548,0.3207,0.3176,0.317,0.304,0.2998,0.2889,0.2863,0.2827,0.2862,0.2788,0.2744,0.279,0.2801,0.2688,0.2485,0.2409,0.2235,0.2095,0.2146,0.2464,0.2505,0.2544,0.2441,0.2152,0.2151,0.16,0.1596,0.1593]},{"header":{"parameterUnit":"m.s-1","parameterCategory":2,"la1":30.2991,"la2":30.254,"lo1":-89.0895,"lo2":-89.0444,"dy":0.0017,"dx":0.0017,"nx":28,"ny":28,"refTime":"2024-10-10T09:00:00:Z","depth":"0","parameterNumber":3,"parameterNumberName":"V-component_of_CURRENTS"},"data":[0,0,0,0,0,0,0,0,0,0,0,0,0,0,0,0,0,0,0,0,0,0,0,0,0,0,0,0,0,0,0,0,0,0,0,0,0,0,0,0,0,0,0,0,0,0,0,0,0,0,0,0,0,0,0,0,0,0,-0.0367,-0.0367,0,-0.0346,-0.0346,-0.0346,-0.0332,-0.0332,-0.0332,-0.0331,-0.033,-0.0331,-0.0331,0,0,0,0,0,0,0,0,0,0,0,0,0,-0.0416,-0.0415,-0.0367,-0.0367,-0.0367,-0.0346,-0.0346,-0.0346,-0.0332,-0.0332,-0.0332,-0.0331,-0.033,-0.0331,-0.0331,0,0,0,0,0,0,0,0,0,0,0,0,0,-0.0395,-0.0415,-0.0367,-0.0357,-0.0356,-0.0346,-0.0346,-0.0346,-0.0332,-0.0332,-0.0332,-0.0331,-0.033,-0.0331,-0.0331,-0.0335,0,0,-0.0331,-0.0331,0,0,0,0,0,0,0,0,-0.0397,-0.0394,-0.0359,-0.0358,-0.0356,-0.0341,-0.0363,-0.0343,-0.0332,-0.0341,-0.0331,-0.0331,-0.0336,-0.0336,-0.0332,-0.0335,-0.0335,-0.0331,-0.0331,-0.0331,-0.0331,0,0,0,0,0,0,0,-0.0398,-0.0395,-0.0359,-0.0358,-0.0357,-0.0361,-0.0357,-0.0359,-0.0341,-0.034,-0.0339,-0.0337,-0.0335,-0.0332,-0.0332,-0.0335,-0.0331,-0.0331,-0.0331,-0.0331,-0.0342,-0.0342,0,0,0,0,0,0,-0.0399,-0.0396,-0.036,-0.0359,-0.0376,-0.036,-0.0356,-0.0347,-0.034,-0.0339,-0.0337,-0.0336,-0.0332,-0.0332,-0.0332,-0.0317,-0.0331,-0.0331,-0.0331,-0.0342,-0.0342,-0.0342,0,0,0,0,0,0,-0.04,-0.0396,-0.0361,-0.0377,-0.0373,-0.0359,-0.0348,-0.0346,-0.0343,-0.0337,-0.0336,-0.0336,-0.0332,-0.0332,-0.0328,-0.0317,-0.0331,-0.0332,-0.0341,-0.0342,-0.0342,-0.0299,0,0,0,0,0,0,-0.0401,-0.0396,-0.0395,-0.0377,-0.0372,-0.0354,-0.0349,-0.0346,-0.0342,-0.0341,-0.0336,-0.0336,-0.0332,-0.0327,-0.0328,-0.0318,-0.0332,-0.0341,-0.0341,-0.0342,-0.03,-0.0298,-0.0296,0,0,0,0,0,-0.0403,-0.0399,-0.0395,-0.0391,-0.0369,-0.0354,-0.0351,-0.0342,-0.0342,-0.0339,-0.0333,-0.0336,-0.033,-0.0327,-0.0328,-0.0318,-0.0341,-0.0341,-0.0342,-0.0301,-0.0298,-0.0296,0,0,0,0,0,0,-0.0429,-0.0397,-0.0392,-0.0381,-0.0368,-0.0351,-0.0349,-0.0344,-0.0338,-0.0337,-0.0334,-0.0333,-0.0324,-0.0334,-0.0331,-0.0325,-0.0338,-0.0339,-0.0307,-0.0305,-0.0303,-0.028,-0.0332,0,0,0,0,0,-0.0432,-0.0417,-0.0394,-0.0389,-0.0379,-0.0366,-0.0362,-0.0353,-0.0343,-0.034,-0.0333,-0.0333,-0.0327,-0.0326,-0.0324,-0.0322,-0.0317,-0.0319,-0.0317,-0.0315,-0.0299,-0.0285,-0.028,-0.0343,-0.0343,-0.0343,0,0,-0.0446,-0.0424,-0.0419,-0.0393,-0.0382,-0.0357,-0.0363,-0.0352,-0.0331,-0.0341,-0.0318,-0.0322,-0.0325,-0.0314,-0.0313,-0.032,-0.0297,-0.0316,-0.0313,-0.0298,-0.0285,-0.0279,-0.0273,-0.0344,-0.0344,-0.0344,0,0,-0.0441,-0.0439,-0.0412,-0.0399,-0.0374,-0.0362,-0.0358,-0.0337,-0.0329,-0.0313,-0.0311,-0.0307,-0.0305,-0.0295,-0.0293,-0.0283,-0.0284,-0.0293,-0.0261,-0.0248,-0.0242,-0.0237,-0.0225,-0.0219,-0.0294,-0.0294,-0.0293,0,-0.0453,-0.0413,-0.0408,-0.0375,-0.0358,-0.036,-0.0327,-0.0321,-0.0302,-0.0283,-0.0302,-0.0276,-0.0291,-0.0258,-0.026,-0.0274,-0.0268,-0.0267,-0.0242,-0.0237,-0.0232,-0.0222,-0.0216,-0.0292,-0.0292,-0.0292,-0.0292,0,-0.0412,-0.039,-0.0377,-0.0327,-0.0316,-0.0295,-0.0277,-0.0265,-0.0261,-0.0243,-0.0216,-0.0231,-0.0213,-0.0226,-0.0241,-0.0212,-0.022,-0.0237,-0.0242,-0.0223,-0.0214,-0.0208,-0.0289,-0.0289,-0.029,-0.029,0,0,-0.0396,-0.0351,-0.0345,-0.0314,-0.0286,-0.0264,-0.024,-0.0198,-0.0161,-0.0165,-0.011,-0.013,-0.0136,-0.0136,-0.0156,-0.0154,-0.0132,-0.0183,-0.0183,-0.0158,-0.0098,-0.0118,-0.0113,-0.0142,-0.0141,-0.014,-0.0106,0,-0.0354,-0.0287,-0.0277,-0.0222,-0.0183,-0.0183,-0.0152,-0.0125,-0.0107,-0.0061,-0.0073,-0.0039,-0.0103,-0.0091,-0.0101,-0.0113,-0.0114,-0.0139,-0.0132,-0.0132,-0.014,-0.0106,-0.0082,-0.0051,-0.0101,-0.01,-0.0099,0,-0.0297,-0.0257,-0.0195,-0.0146,-0.0129,-0.0103,-0.0044,-0.0015,0.0031,0.0047,0.0068,0.0062,0.0071,0.001,-0.0004,-0.0016,-0.0055,-0.0077,-0.0076,-0.01,-0.0139,-0.008,-0.0038,-0.0146,-0.009,-0.0091,-0.0091,0,-0.0259,-0.0196,-0.0143,-0.0128,-0.0077,-0.005,-0.002,0.0024,0.0075,0.0125,0.0172,0.0167,0.0186,0.0138,0.007,0.0039,0.0063,0.0013,-0.0037,-0.0039,-0.0019,-0.0022,-0.0067,0.0007,0.0007,0.0007,0.0007,0,-0.0209,-0.0166,-0.0121,-0.0094,-0.0017,-0.0005,0.0075,0.0106,0.0172,0.0267,0.0232,0.0305,0.0218,0.0214,0.0129,0.0075,0.0105,-0.0013,-0.0025,-0.0007,-0.0008,-0.0104,-0.0182,0.0008,0.0008,0.0008,0.0007,0,-0.0179,-0.0152,-0.0082,-0.0024,0.0003,0.0058,0.0144,0.0211,0.0251,0.0377,0.0402,0.0426,0.0424,0.0334,0.0277,0.0165,0.0047,0.0075,0.0099,0.0089,-0.0087,-0.0164,-0.022,-0.0272,0.0024,0.0024,0.0024,0,-0.0156,-0.0121,-0.0033,0.0028,0.0057,0.0136,0.0203,0.0255,0.0343,0.0468,0.0552,0.0575,0.0636,0.0529,0.0353,0.022,0.0085,0.011,0.004,-0.0077,-0.0171,-0.0231,-0.0275,0.0084,0.0085,0.0085,0.0085,0,-0.0114,-0.0089,-0.0032,0.0092,0.0175,0.027,0.0371,0.045,0.0544,0.0654,0.0802,0.0859,0.0767,0.0655,0.0437,0.0321,0.0026,0.0109,-0.0005,-0.0118,-0.0189,-0.025,0.0033,0.0088,0.0088,0.0088,0.0087,0.0087,-0.008,-0.0029,0.0053,0.0175,0.0278,0.0407,0.0495,0.062,0.0774,0.0972,0.1003,0.1149,0.0928,0.0651,0.0451,0.0081,0.0055,-0.0043,-0.012,-0.0166,-0.0236,0.0046,0.0074,0.0074,0.0074,0.0073,0.0073,0,-0.0018,0.0039,0.0142,0.0288,0.0416,0.0453,0.062,0.0726,0.0924,0.1138,0.1282,0.131,0.1028,0.0697,0.0184,-0.0093,-0.0203,-0.0247,-0.0322,-0.0354,-0.0081,-0.01,-0.0115,-0.0115,-0.0115,-0.0114,-0.0114,-0.0114,0.0024,0.0121,0.0172,0.0385,0.0492,0.065,0.0749,0.0912,0.1089,0.1367,0.1524,0.1614,0.1356,0.0438,-0.0168,-0.0307,-0.0512,-0.0555,-0.0664,-0.0482,-0.0469,-0.0456,-0.0491,-0.0588,-0.0589,-0.0886,-0.0889,-0.0892]}],[{"header":{"parameterUnit":"m.s-1","parameterCategory":2,"la1":30.2991,"la2":30.254,"lo1":-89.0895,"lo2":-89.0444,"dy":0.0017,"dx":0.0017,"nx":28,"ny":28,"refTime":"2024-10-10T09:00:00:Z","depth":"2","parameterNumber":2,"parameterNumberName":"U-component_of_CURRENTS"},"data":[0,0,0,0,0,0,0,0,0,0,0,0,0,0,0,0,0,0,0,0,0,0,0,0,0,0,0,0,0,0,0,0,0,0,0,0,0,0,0,0,0,0,0,0,0,0,0,0,0,0,0,0,0,0,0,0,0,0,0.2221,0.2221,0,0.2208,0.2208,0.2208,0.2205,0.2205,0.2205,0.2206,0.2219,0.2219,0.222,0,0,0,0,0,0,0,0,0,0,0,0,0,0.2232,0.2232,0.2221,0.2221,0.222,0.2208,0.2208,0.2208,0.2205,0.2205,0.2205,0.2206,0.2219,0.2219,0.222,0,0,0,0,0,0,0,0,0,0,0,0,0,0.2223,0.2232,0.2221,0.2218,0.2218,0.2208,0.2208,0.2208,0.2205,0.2205,0.2205,0.2206,0.2219,0.2219,0.222,0.2218,0,0,0.2221,0.2221,0,0,0,0,0,0,0,0,0.2224,0.2223,0.2218,0.2218,0.2218,0.2209,0.2217,0.2213,0.2205,0.2209,0.2206,0.2206,0.2218,0.2219,0.2215,0.2218,0.2219,0.2221,0.2221,0.2221,0.2221,0,0,0,0,0,0,0,0.2225,0.2223,0.2215,0.2218,0.2218,0.2214,0.2213,0.2216,0.2213,0.2209,0.2209,0.2208,0.2218,0.2214,0.2215,0.2219,0.2221,0.2221,0.2221,0.2221,0.2288,0.2289,0,0,0,0,0,0,0.2227,0.2224,0.2216,0.2215,0.2222,0.2214,0.2213,0.2211,0.2212,0.2213,0.2208,0.2208,0.2214,0.2215,0.2216,0.2278,0.2221,0.2221,0.2222,0.2286,0.2288,0.229,0,0,0,0,0,0,0.2228,0.2227,0.2216,0.222,0.2218,0.2213,0.2212,0.2211,0.2228,0.2211,0.2212,0.2228,0.2214,0.2215,0.2237,0.2276,0.2222,0.2222,0.2284,0.2287,0.2289,0.2361,0,0,0,0,0,0,0.2228,0.2227,0.2227,0.222,0.2218,0.2229,0.2211,0.221,0.2226,0.2226,0.2229,0.2229,0.2214,0.2236,0.2237,0.2276,0.2222,0.2282,0.2285,0.2288,0.2357,0.2366,0.2373,0,0,0,0,0,0.2228,0.2226,0.2227,0.2226,0.2218,0.223,0.223,0.2226,0.2227,0.2241,0.2242,0.223,0.2256,0.2238,0.2238,0.2278,0.2281,0.2284,0.2288,0.2353,0.2364,0.2373,0,0,0,0,0,0,0.2216,0.2226,0.2227,0.2223,0.2236,0.2231,0.2242,0.2242,0.2252,0.2258,0.2243,0.2244,0.2282,0.2268,0.2248,0.2306,0.2269,0.2273,0.2319,0.2329,0.2337,0.234,0.2223,0,0,0,0,0,0.2217,0.2239,0.2235,0.2244,0.2249,0.2253,0.2257,0.226,0.2265,0.2271,0.2272,0.2278,0.2293,0.2301,0.2309,0.2334,0.2334,0.2362,0.237,0.2377,0.2381,0.2412,0.2424,0.2301,0.2301,0.2301,0,0,0.222,0.2228,0.224,0.2247,0.2258,0.2266,0.2257,0.2279,0.2291,0.2271,0.2298,0.231,0.2308,0.234,0.2356,0.2334,0.2415,0.2382,0.2388,0.2387,0.2417,0.2429,0.2439,0.2303,0.2303,0.2303,0,0,0.2233,0.2243,0.226,0.2272,0.2291,0.2295,0.2308,0.2317,0.2329,0.2353,0.235,0.238,0.2395,0.2402,0.2406,0.2463,0.2461,0.248,0.252,0.2551,0.2562,0.257,0.2599,0.2609,0.248,0.248,0.248,0,0.2238,0.2247,0.2267,0.2278,0.2295,0.2312,0.2328,0.2338,0.2355,0.2383,0.2373,0.2429,0.2421,0.2469,0.2487,0.2481,0.2503,0.2482,0.2562,0.2571,0.2579,0.2605,0.2616,0.2484,0.2483,0.2483,0.2482,0,0.2246,0.2263,0.2279,0.2305,0.2325,0.2351,0.2366,0.2396,0.2419,0.2437,0.2503,0.25,0.2529,0.2545,0.2528,0.2595,0.2595,0.2573,0.2537,0.2596,0.262,0.263,0.2489,0.2488,0.2487,0.2486,0,0,0.2255,0.228,0.2294,0.2297,0.2346,0.2353,0.2404,0.2451,0.2483,0.2524,0.2574,0.261,0.2626,0.263,0.2631,0.266,0.2728,0.2647,0.2647,0.2674,0.2813,0.2729,0.2732,0.2733,0.2735,0.2736,0.2812,0,0.2267,0.2279,0.2306,0.2334,0.2337,0.2387,0.2427,0.2477,0.2523,0.2572,0.2617,0.2665,0.2652,0.2678,0.2705,0.2729,0.2757,0.271,0.2752,0.2753,0.267,0.2741,0.2521,0.2564,0.2822,0.2824,0.2825,0,0.2257,0.2276,0.2301,0.2333,0.2345,0.2378,0.2458,0.2495,0.2586,0.2626,0.27,0.2727,0.2796,0.2758,0.2838,0.2819,0.2817,0.283,0.2833,0.2733,0.2687,0.2544,0.2572,0.2841,0.284,0.2839,0.2838,0,0.2226,0.2261,0.2284,0.2298,0.2349,0.2395,0.2443,0.2533,0.2573,0.2681,0.2722,0.2807,0.2843,0.2886,0.2899,0.2887,0.2972,0.2947,0.2874,0.2868,0.2674,0.2647,0.2987,0.2987,0.2987,0.2987,0.2987,0,0.2206,0.2227,0.2273,0.2289,0.2323,0.2381,0.2444,0.2507,0.2607,0.2664,0.2749,0.2793,0.2878,0.2925,0.2936,0.294,0.2999,0.2897,0.2886,0.2694,0.2669,0.2895,0.2883,0.299,0.2989,0.2989,0.2988,0,0.2156,0.22,0.2212,0.228,0.2305,0.2335,0.2431,0.2477,0.2584,0.2661,0.2705,0.2811,0.2889,0.2943,0.301,0.297,0.2993,0.2965,0.2735,0.2695,0.2864,0.2855,0.2919,0.2917,0.2915,0.2913,0.2912,0,0.213,0.2126,0.218,0.2208,0.2252,0.2308,0.2359,0.2464,0.2523,0.2658,0.2694,0.2799,0.283,0.2901,0.2891,0.2909,0.2957,0.2687,0.2607,0.2876,0.286,0.2854,0.2848,0.2391,0.2386,0.2381,0.2378,0,0.2071,0.2094,0.2121,0.2158,0.2216,0.2231,0.2319,0.2341,0.2476,0.253,0.2602,0.2641,0.2728,0.2643,0.2668,0.2646,0.2675,0.2595,0.2946,0.2434,0.2382,0.2365,0.2375,0.2338,0.2342,0.2344,0.2347,0.2348,0.2037,0.2023,0.206,0.209,0.2145,0.2146,0.2125,0.2212,0.2243,0.2294,0.242,0.2403,0.2457,0.2378,0.2319,0.2283,0.2468,0.2349,0.2361,0.2379,0.2296,0.2242,0.2157,0.216,0.2162,0.2165,0.2166,0,0.1953,0.1956,0.1984,0.2004,0.2011,0.2072,0.2086,0.2033,0.2013,0.21,0.2125,0.1959,0.1918,0.1979,0.1866,0.1872,0.1845,0.1791,0.1735,0.1777,0.1814,0.1701,0.1405,0.1402,0.14,0.1397,0,0,0.1912,0.1895,0.1894,0.1865,0.189,0.1831,0.1802,0.1744,0.1747,0.1669,0.166,0.1807,0.1904,0.1617,0.1598,0.1475,0.1606,0.1416,0.2033,0.2009,0.2042,0.2149,0.2024,0,0,0,0,0]},{"header":{"parameterUnit":"m.s-1","parameterCategory":2,"la1":30.2991,"la2":30.254,"lo1":-89.0895,"lo2":-89.0444,"dy":0.0017,"dx":0.0017,"nx":28,"ny":28,"refTime":"2024-10-10T09:00:00:Z","depth":"2","parameterNumber":3,"parameterNumberName":"V-component_of_CURRENTS"},"data":[0,0,0,0,0,0,0,0,0,0,0,0,0,0,0,0,0,0,0,0,0,0,0,0,0,0,0,0,0,0,0,0,0,0,0,0,0,0,0,0,0,0,0,0,0,0,0,0,0,0,0,0,0,0,0,0,0,0,0.0208,0.0207,0,0.0193,0.0192,0.0192,0.0169,0.0169,0.0168,0.0168,0.0141,0.0141,0.014,0,0,0,0,0,0,0,0,0,0,0,0,0,0.0195,0.0196,0.0208,0.0207,0.0207,0.0193,0.0192,0.0192,0.0169,0.0169,0.0168,0.0168,0.0141,0.0141,0.014,0,0,0,0,0,0,0,0,0,0,0,0,0,0.0192,0.0196,0.0208,0.0195,0.0194,0.0193,0.0192,0.0192,0.0169,0.0169,0.0168,0.0168,0.0141,0.0141,0.014,0.0146,0,0,0.0138,0.0138,0,0,0,0,0,0,0,0,0.0192,0.0192,0.0197,0.0196,0.0194,0.0183,0.0178,0.0176,0.0169,0.0177,0.0168,0.0167,0.0155,0.0153,0.015,0.0145,0.0143,0.0138,0.0138,0.0137,0.0137,0,0,0,0,0,0,0,0.0192,0.0192,0.0201,0.0197,0.0195,0.0183,0.0182,0.0178,0.0168,0.0176,0.0175,0.0175,0.0154,0.0151,0.0149,0.0143,0.0138,0.0138,0.0137,0.0137,0.0128,0.0128,0,0,0,0,0,0,0.0198,0.0193,0.0201,0.02,0.0193,0.0184,0.0183,0.0186,0.0168,0.0165,0.0176,0.0174,0.0152,0.015,0.0148,0.0153,0.0137,0.0137,0.0136,0.0128,0.0128,0.0128,0,0,0,0,0,0,0.0198,0.0199,0.0202,0.0197,0.0196,0.0185,0.0189,0.0186,0.018,0.0168,0.0165,0.0172,0.0152,0.0149,0.0147,0.0152,0.0137,0.0136,0.0128,0.0128,0.0128,0.0163,0,0,0,0,0,0,0.0198,0.0199,0.0202,0.0197,0.0197,0.0206,0.0189,0.0186,0.0181,0.0179,0.0163,0.0161,0.0151,0.0148,0.0146,0.015,0.0136,0.0128,0.0128,0.0128,0.0161,0.0164,0.0166,0,0,0,0,0,0.0197,0.0212,0.0203,0.0203,0.0202,0.0206,0.0205,0.0194,0.0182,0.0184,0.0173,0.0161,0.0148,0.0148,0.0146,0.015,0.0128,0.0128,0.0128,0.016,0.0163,0.0166,0,0,0,0,0,0,0.0216,0.0211,0.02,0.0214,0.0209,0.0203,0.0205,0.0195,0.0187,0.0183,0.0167,0.0164,0.016,0.0151,0.0151,0.0147,0.0134,0.0134,0.0159,0.0162,0.0164,0.018,0.0135,0,0,0,0,0,0.022,0.0219,0.0217,0.0223,0.0225,0.0212,0.0211,0.0203,0.0197,0.0192,0.018,0.0168,0.0161,0.0159,0.0149,0.0153,0.0139,0.0152,0.0154,0.0157,0.0168,0.0152,0.0154,0.0129,0.0129,0.0129,0,0,0.0228,0.0223,0.0224,0.0225,0.0219,0.0235,0.021,0.0212,0.022,0.0191,0.0196,0.0175,0.0163,0.0163,0.0161,0.0157,0.0154,0.0157,0.0159,0.0169,0.0152,0.0155,0.0157,0.013,0.013,0.013,0,0,0.025,0.0241,0.0253,0.0254,0.0249,0.0245,0.0246,0.024,0.0233,0.0234,0.0213,0.02,0.019,0.0182,0.0178,0.019,0.0165,0.018,0.021,0.0194,0.0196,0.0198,0.0176,0.0175,0.0184,0.0184,0.0184,0,0.026,0.0276,0.0257,0.0274,0.0281,0.0254,0.0278,0.0271,0.0261,0.0261,0.0241,0.0222,0.0203,0.021,0.0208,0.0197,0.018,0.0201,0.0198,0.0199,0.0201,0.0178,0.0177,0.0186,0.0186,0.0186,0.0186,0,0.0298,0.031,0.0319,0.0328,0.0332,0.0345,0.0339,0.0336,0.0318,0.0311,0.0303,0.0273,0.0265,0.0249,0.0232,0.0232,0.0213,0.02,0.0193,0.0205,0.018,0.0178,0.0188,0.0188,0.0187,0.0187,0,0,0.0323,0.0343,0.0345,0.0364,0.0363,0.0377,0.0385,0.0394,0.041,0.0378,0.0394,0.0359,0.0332,0.0325,0.0293,0.0275,0.0255,0.0242,0.024,0.0224,0.0214,0.0192,0.0187,0.0239,0.0239,0.024,0.019,0,0.0358,0.0405,0.04,0.0444,0.0473,0.0454,0.0472,0.0471,0.0458,0.0465,0.0421,0.0421,0.0365,0.0358,0.0329,0.028,0.0254,0.027,0.02,0.0199,0.0181,0.0186,0.0201,0.0158,0.0188,0.0188,0.0187,0,0.0402,0.0425,0.0475,0.0514,0.0526,0.0544,0.0568,0.0583,0.0576,0.0567,0.0545,0.0507,0.0473,0.0423,0.0342,0.0353,0.0287,0.024,0.0237,0.0207,0.0174,0.0151,0.0153,0.0184,0.0185,0.0185,0.0185,0,0.0438,0.0483,0.0524,0.0536,0.0571,0.0587,0.0606,0.0611,0.064,0.063,0.064,0.0587,0.057,0.0481,0.0367,0.0355,0.0277,0.025,0.0167,0.0164,0.0161,0.0158,0.0193,0.0193,0.0193,0.0193,0.0194,0,0.0484,0.0519,0.0546,0.0569,0.063,0.0635,0.0694,0.0701,0.0724,0.0771,0.0696,0.0713,0.0583,0.0515,0.04,0.0281,0.0299,0.0177,0.0154,0.0171,0.017,0.0182,0.0182,0.0192,0.0192,0.0192,0.0193,0,0.0524,0.0535,0.0589,0.0628,0.0649,0.0693,0.0763,0.0811,0.0813,0.0869,0.0867,0.0815,0.0726,0.0584,0.0448,0.0336,0.0217,0.0167,0.0191,0.0172,0.0104,0.0106,0.0074,0.0073,0.0072,0.0071,0.007,0,0.055,0.0582,0.0636,0.0673,0.0693,0.0761,0.0817,0.0854,0.0908,0.0936,0.097,0.0898,0.0863,0.0646,0.0442,0.0243,0.0214,0.0118,0.0096,0.0113,0.0094,0.0097,0.01,0.0099,0.0098,0.0098,0.0098,0,0.0604,0.0615,0.0654,0.0728,0.0788,0.0879,0.0955,0.1011,0.1059,0.1096,0.113,0.11,0.0898,0.0703,0.0423,0.0285,0.0149,0.0104,0.0125,0.0128,0.0133,0.0115,0.0118,0.0095,0.0095,0.0096,0.0096,0.0096,0.0637,0.0676,0.0719,0.0791,0.0865,0.0972,0.105,0.1132,0.1221,0.1272,0.1247,0.1201,0.098,0.0624,0.0383,0.0126,0.0142,0.0045,0.0047,0.005,0.0063,0.0066,0.0018,0.0018,0.0018,0.0018,0.0017,0,0.0677,0.0721,0.0788,0.087,0.095,0.099,0.1127,0.12,0.13,0.1344,0.1359,0.1138,0.0915,0.0653,0.0277,0.0054,0.0039,-0.0023,0.0009,0.0014,0.0018,0.003,-0.0025,-0.0025,-0.0026,-0.0027,0,0,0.0698,0.0763,0.0794,0.0915,0.0979,0.1108,0.1187,0.1291,0.1352,0.1382,0.1352,0.1303,0.0992,0.0711,0.041,0.0192,0.0152,0.0144,0.0203,0.0283,0.0289,0.0083,0.0109,0,0,0,0,0]}],[{"header":{"parameterUnit":"m.s-1","parameterCategory":2,"la1":30.2991,"la2":30.254,"lo1":-89.0895,"lo2":-89.0444,"dy":0.0017,"dx":0.0017,"nx":28,"ny":28,"refTime":"2024-10-10T09:00:00:Z","depth":"4","parameterNumber":2,"parameterNumberName":"U-component_of_CURRENTS"},"data":[0,0,0,0,0,0,0,0,0,0,0,0,0,0,0,0,0,0,0,0,0,0,0,0,0,0,0,0,0,0,0,0,0,0,0,0,0,0,0,0,0,0,0,0,0,0,0,0,0,0,0,0,0,0,0,0,0,0,0.1172,0.1173,0,0.1245,0.1245,0.1246,0.1303,0.1304,0.1305,0.1305,0.1369,0.137,0.1371,0,0,0,0,0,0,0,0,0,0,0,0,0,0.1085,0.1086,0.1172,0.1173,0.1174,0.1245,0.1246,0.1247,0.1303,0.1304,0.1305,0.1305,0.1369,0.137,0.1371,0,0,0,0,0,0,0,0,0,0,0,0,0,0.1136,0.1086,0.1172,0.1211,0.1215,0.1244,0.1246,0.1247,0.1303,0.1304,0.1305,0.1306,0.1368,0.137,0.1372,0.1365,0,0,0.1377,0.1378,0,0,0,0,0,0,0,0,0.1133,0.1139,0.1204,0.1208,0.1213,0.1266,0.1238,0.1286,0.1303,0.1269,0.1305,0.1306,0.1333,0.1338,0.1349,0.1368,0.1371,0.1377,0.1378,0.1379,0.1379,0,0,0,0,0,0,0,0.1129,0.1136,0.1201,0.1205,0.1211,0.1226,0.1234,0.1248,0.1295,0.1272,0.1277,0.1285,0.1336,0.1348,0.1351,0.1372,0.1377,0.1379,0.138,0.138,0.1476,0.1478,0,0,0,0,0,0,0.112,0.1133,0.1198,0.1203,0.1175,0.1226,0.1236,0.1248,0.1295,0.1304,0.1284,0.1287,0.1344,0.1349,0.1354,0.143,0.1379,0.1381,0.1382,0.1475,0.1477,0.1478,0,0,0,0,0,0,0.1118,0.1125,0.1195,0.1169,0.1179,0.1227,0.124,0.1249,0.1286,0.1305,0.1313,0.1315,0.1345,0.1351,0.1394,0.143,0.1381,0.1383,0.1473,0.1476,0.1478,0.153,0,0,0,0,0,0,0.1115,0.1124,0.1139,0.1169,0.1181,0.1225,0.124,0.125,0.1288,0.1294,0.1333,0.1339,0.1346,0.1392,0.1396,0.1431,0.1384,0.1471,0.1474,0.1477,0.1526,0.1534,0.154,0,0,0,0,0,0.1112,0.1122,0.114,0.1148,0.1197,0.1226,0.1234,0.127,0.1289,0.1306,0.1341,0.1339,0.1413,0.1394,0.1399,0.1436,0.147,0.1473,0.1477,0.1523,0.1532,0.154,0,0,0,0,0,0,0.1086,0.113,0.115,0.1172,0.1204,0.1236,0.1261,0.1281,0.1322,0.1339,0.1354,0.1362,0.1417,0.1415,0.1394,0.1472,0.1442,0.1447,0.1476,0.1485,0.1491,0.1485,0.1386,0,0,0,0,0,0.1088,0.1118,0.1151,0.1175,0.1193,0.1232,0.1253,0.1278,0.1312,0.1333,0.1364,0.1397,0.1429,0.1449,0.1474,0.151,0.1513,0.1538,0.1545,0.1551,0.155,0.1593,0.1604,0.149,0.149,0.149,0,0,0.108,0.1115,0.1128,0.1173,0.1206,0.1234,0.1248,0.1289,0.132,0.1332,0.1395,0.1424,0.1445,0.1495,0.1518,0.1501,0.1585,0.1555,0.156,0.1556,0.1598,0.1609,0.1619,0.1492,0.1491,0.1491,0,0,0.1084,0.1118,0.1145,0.1174,0.1229,0.1252,0.1267,0.1317,0.1351,0.1403,0.1428,0.1477,0.1523,0.155,0.1565,0.1621,0.1622,0.1638,0.1667,0.171,0.1719,0.1728,0.1744,0.1754,0.1639,0.1639,0.1639,0,0.1079,0.1116,0.1155,0.1189,0.1218,0.1261,0.1291,0.1326,0.1386,0.1422,0.1432,0.1531,0.1547,0.1607,0.1632,0.1637,0.1656,0.1633,0.1718,0.1727,0.1734,0.175,0.176,0.1642,0.1641,0.1641,0.1641,0,0.1096,0.1134,0.1154,0.1215,0.1248,0.1283,0.1331,0.138,0.1429,0.1468,0.1553,0.1587,0.1644,0.1662,0.1664,0.1735,0.1729,0.1724,0.1695,0.1749,0.1762,0.1771,0.1646,0.1645,0.1644,0.1643,0,0,0.107,0.115,0.1163,0.1194,0.1269,0.1293,0.1358,0.1424,0.1475,0.1543,0.161,0.1675,0.171,0.1728,0.1749,0.1783,0.1851,0.1782,0.1782,0.1794,0.194,0.1812,0.1809,0.1872,0.1874,0.1876,0.1926,0,0.108,0.1139,0.1182,0.1238,0.1268,0.1331,0.1385,0.1454,0.1521,0.1595,0.1653,0.1725,0.1729,0.1772,0.1809,0.1847,0.1879,0.1837,0.1889,0.189,0.1767,0.1817,0.1882,0.1933,0.1935,0.1937,0.1938,0,0.1083,0.1127,0.1183,0.1257,0.1279,0.1322,0.1424,0.1478,0.1586,0.1643,0.1728,0.1776,0.1854,0.1842,0.1932,0.1912,0.1931,0.1947,0.1949,0.1815,0.1779,0.1869,0.1954,0.1953,0.1952,0.1951,0.195,0,0.1045,0.1124,0.1173,0.1198,0.1288,0.1339,0.1398,0.1505,0.1566,0.1687,0.1746,0.1838,0.19,0.1947,0.1991,0.1977,0.2071,0.2051,0.195,0.194,0.2017,0.2007,0.2107,0.2107,0.2106,0.2106,0.2106,0,0.1029,0.1066,0.1163,0.1187,0.125,0.1328,0.1411,0.1486,0.1601,0.1671,0.1774,0.1833,0.1936,0.1999,0.2017,0.2011,0.2098,0.1957,0.1949,0.2037,0.2029,0.2023,0.2013,0.2108,0.2108,0.2107,0.2107,0,0.0974,0.1042,0.1094,0.1197,0.1234,0.1284,0.1408,0.1463,0.1588,0.1683,0.1729,0.186,0.1938,0.2011,0.2088,0.2034,0.2045,0.2019,0.2108,0.2104,0.1875,0.1867,0.1899,0.1895,0.1892,0.1889,0.1887,0,0.0951,0.0974,0.1083,0.1123,0.1177,0.1263,0.1319,0.1447,0.1508,0.1678,0.1711,0.1837,0.1907,0.1912,0.1991,0.2014,0.1993,0.1977,0.1918,0.1867,0.1857,0.1854,0.1851,0.1881,0.188,0.1879,0.1878,0,0.0896,0.0947,0.0992,0.1072,0.114,0.1188,0.1283,0.1315,0.1461,0.1587,0.1656,0.1702,0.1781,0.1832,0.187,0.1881,0.1974,0.1941,0.1947,0.1891,0.1846,0.1838,0.1839,0.1867,0.1868,0.1869,0.187,0,0.0859,0.0873,0.0945,0.1007,0.1082,0.1102,0.1153,0.1226,0.1297,0.149,0.1506,0.1638,0.176,0.1763,0.1797,0.1801,0.1767,0.1698,0.1716,0.173,0.1651,0.1567,0.1499,0,0,0,0,0,0.0817,0.0825,0.0874,0.093,0.0997,0.1036,0.1127,0.1183,0.1323,0.1334,0.1419,0.1486,0.1542,0.1609,0.158,0.1712,0.1766,0.1668,0.1694,0.1801,0.1815,0.1737,0,0,0,0,0,0,0.0788,0.0825,0.0843,0.0856,0.0881,0.0929,0.0978,0.1063,0.1079,0.1233,0.1275,0.1393,0.1473,0.1552,0.1554,0.1573,0.1556,0.1756,0.1752,0.1793,0.1806,0.1817,0.1742,0,0,0,0,0]},{"header":{"parameterUnit":"m.s-1","parameterCategory":2,"la1":30.2991,"la2":30.254,"lo1":-89.0895,"lo2":-89.0444,"dy":0.0017,"dx":0.0017,"nx":28,"ny":28,"refTime":"2024-10-10T09:00:00:Z","depth":"4","parameterNumber":3,"parameterNumberName":"V-component_of_CURRENTS"},"data":[0,0,0,0,0,0,0,0,0,0,0,0,0,0,0,0,0,0,0,0,0,0,0,0,0,0,0,0,0,0,0,0,0,0,0,0,0,0,0,0,0,0,0,0,0,0,0,0,0,0,0,0,0,0,0,0,0,0,0.0265,0.0265,0,0.0253,0.0253,0.0253,0.0243,0.0243,0.0243,0.0243,0.0237,0.0236,0.0236,0,0,0,0,0,0,0,0,0,0,0,0,0,0.0255,0.0256,0.0265,0.0265,0.0265,0.0253,0.0253,0.0253,0.0243,0.0243,0.0243,0.0243,0.0237,0.0236,0.0236,0,0,0,0,0,0,0,0,0,0,0,0,0,0.0253,0.0256,0.0265,0.0259,0.0258,0.0253,0.0253,0.0253,0.0243,0.0243,0.0243,0.0243,0.0237,0.0237,0.0236,0.0238,0,0,0.0236,0.0236,0,0,0,0,0,0,0,0,0.0253,0.0253,0.026,0.0259,0.0258,0.025,0.0247,0.0248,0.0243,0.0248,0.0243,0.0243,0.0242,0.0241,0.0239,0.0237,0.0237,0.0236,0.0236,0.0236,0.0236,0,0,0,0,0,0,0,0.0253,0.0254,0.026,0.026,0.0259,0.0248,0.0248,0.0247,0.0246,0.0248,0.0247,0.0246,0.0241,0.0239,0.0238,0.0237,0.0236,0.0236,0.0236,0.0236,0.0241,0.0241,0,0,0,0,0,0,0.0257,0.0254,0.026,0.026,0.0256,0.0249,0.0248,0.0252,0.0246,0.0244,0.0247,0.0246,0.0239,0.0239,0.0238,0.025,0.0236,0.0236,0.0236,0.0241,0.0241,0.0241,0,0,0,0,0,0,0.0257,0.0258,0.0261,0.0256,0.0256,0.0249,0.0254,0.0252,0.0253,0.0244,0.0243,0.0249,0.0239,0.0238,0.0242,0.0249,0.0236,0.0235,0.0241,0.0241,0.0241,0.0266,0,0,0,0,0,0,0.0257,0.0258,0.0262,0.0257,0.0256,0.0264,0.0254,0.0252,0.0252,0.0252,0.0246,0.0245,0.0239,0.0243,0.0242,0.0249,0.0235,0.024,0.0241,0.0241,0.0265,0.0267,0.0269,0,0,0,0,0,0.0256,0.0269,0.0263,0.0264,0.0263,0.0264,0.0263,0.0257,0.0253,0.0256,0.0252,0.0246,0.0245,0.0243,0.0242,0.0249,0.024,0.0241,0.0241,0.0264,0.0267,0.0269,0,0,0,0,0,0,0.027,0.0269,0.0262,0.0274,0.027,0.0263,0.0267,0.0261,0.026,0.026,0.0251,0.025,0.0254,0.0249,0.0247,0.0251,0.0241,0.0241,0.0258,0.0261,0.0263,0.027,0.0235,0,0,0,0,0,0.0274,0.028,0.0275,0.0283,0.0283,0.0274,0.0274,0.027,0.0267,0.0267,0.0262,0.0258,0.0255,0.0256,0.0253,0.0258,0.0238,0.0261,0.0263,0.0265,0.027,0.0242,0.0242,0.0243,0.0243,0.0243,0,0,0.0283,0.028,0.0286,0.0286,0.0282,0.029,0.0274,0.0278,0.0285,0.0267,0.0276,0.0265,0.0258,0.0262,0.0264,0.0259,0.0253,0.0265,0.0267,0.0271,0.0242,0.0242,0.0242,0.0244,0.0243,0.0243,0,0,0.0301,0.0301,0.0311,0.0311,0.0307,0.0304,0.0307,0.0302,0.03,0.0304,0.0292,0.0285,0.0286,0.0278,0.0276,0.0288,0.0263,0.0287,0.0306,0.0278,0.0278,0.0277,0.0246,0.0242,0.0289,0.0289,0.0289,0,0.0308,0.0323,0.0314,0.0323,0.0328,0.0313,0.0327,0.0325,0.0321,0.0322,0.0312,0.0302,0.0293,0.0295,0.0298,0.0293,0.0271,0.0297,0.0281,0.028,0.0279,0.0247,0.0242,0.029,0.029,0.029,0.029,0,0.0335,0.0345,0.0353,0.0359,0.0363,0.0374,0.0369,0.0372,0.0365,0.0359,0.0356,0.0337,0.0332,0.0324,0.0317,0.0308,0.0293,0.0285,0.0274,0.028,0.0246,0.0241,0.0292,0.0292,0.0291,0.0291,0,0,0.035,0.0368,0.0371,0.0383,0.0385,0.0394,0.0404,0.041,0.042,0.0403,0.0408,0.0392,0.0375,0.037,0.0352,0.0327,0.0297,0.0307,0.0305,0.0276,0.0232,0.0219,0.0212,0.0284,0.0283,0.0283,0.0208,0,0.0371,0.04,0.0402,0.0434,0.0449,0.0443,0.0458,0.046,0.0452,0.0453,0.0422,0.0423,0.0395,0.0392,0.0362,0.0317,0.0286,0.0318,0.0231,0.0228,0.0216,0.0207,0.0281,0.0205,0.0203,0.0203,0.0202,0,0.0394,0.0411,0.0447,0.0475,0.0483,0.0501,0.0521,0.0533,0.0525,0.0518,0.05,0.0474,0.0442,0.0415,0.0332,0.0353,0.0297,0.0254,0.025,0.0228,0.0207,0.0199,0.0193,0.0194,0.0194,0.0195,0.0195,0,0.0409,0.0443,0.0474,0.0484,0.0513,0.0531,0.055,0.0554,0.0573,0.0561,0.0563,0.0514,0.0496,0.0418,0.0329,0.0329,0.023,0.0217,0.0149,0.0147,0.017,0.0172,0.0154,0.0154,0.0154,0.0154,0.0154,0,0.0427,0.0455,0.0489,0.0507,0.0554,0.0564,0.0609,0.0614,0.0628,0.0652,0.0604,0.0599,0.0496,0.0426,0.0338,0.0229,0.0233,0.015,0.0128,0.0181,0.0185,0.0166,0.0168,0.0151,0.0152,0.0153,0.0153,0,0.0438,0.0458,0.05,0.0543,0.0562,0.0598,0.0658,0.069,0.0694,0.0719,0.0718,0.0662,0.0571,0.0457,0.0328,0.0247,0.0141,0.01,0.0164,0.0147,0.0072,0.0076,0.0014,0.0012,0.0012,0.0011,0.001,0,0.0444,0.0467,0.0528,0.0563,0.0587,0.0645,0.069,0.0721,0.0755,0.0756,0.0768,0.0693,0.0637,0.0446,0.0323,0.0144,0.0119,0.0055,0.0062,0.0073,0.0057,0.0063,0.0069,0.0009,0.0009,0.0008,0.0008,0,0.0457,0.0481,0.0518,0.0589,0.0645,0.0709,0.0771,0.0798,0.0831,0.0834,0.0804,0.0704,0.0598,0.0448,0.0309,0.0182,0.0091,0.0045,0.0046,0.0052,0.0066,0.0053,0.006,0.0005,0.0005,0.0006,0.0006,0,0.0467,0.0496,0.0548,0.0611,0.0682,0.0749,0.0784,0.0823,0.0854,0.0851,0.0839,0.0724,0.066,0.0468,0.0341,0.0212,0.0176,0.0126,0.0122,0.0124,0.0177,0.0212,0.0175,0,0,0,0,0,0.0473,0.051,0.0568,0.0637,0.0708,0.0753,0.0827,0.0857,0.0884,0.0869,0.0855,0.0756,0.0565,0.0487,0.0356,0.0316,0.0149,0.0156,0.0088,-0.0012,-0.0009,0.0033,0,0,0,0,0,0,0.0476,0.0532,0.0563,0.0645,0.0697,0.078,0.0831,0.0855,0.0848,0.085,0.0757,0.0709,0.0531,0.0638,0.0348,0.031,0.0245,0.0071,0.0068,-0.0014,-0.0011,-0.0008,0.0036,0,0,0,0,0]}]]